This demonstration page uses our WeatherBlox Daily Observations layout. Learn more.

Left ArrowRight Arrow

Hourly Observations for April 26, 2020

Temp ( °F °C ) Dew Point ( °F °C ) Humidity (%) Winds ( mph kmh ) Pressure ( in mb ) Visibility ( mi km ) Precip ( " mm )
12:51 am 00:51 Clear 61 16.1 24 -4.4 24 24 Calm 29.88 1012 10 16.0934 0 0
1:51 am 01:51 Clear 58 14.4 24 -4.4 27 27 Calm 29.88 1012 10 16.0934 0 0
2:51 am 02:51 Clear 57 13.9 26 -3.3 30 30 Calm 29.89 1012 10 16.0934 0 0
3:51 am 03:51 Clear 62 16.7 27 -2.8 26 26 Calm 29.88 1012 10 16.0934 0 0
4:51 am 04:51 Clear 53 11.7 23 -5 31 31 ENE 3 6 29.89 1012 10 16.0934 0 0
5:51 am 05:51 Sunny 52 11.1 24 -4.4 34 34 Calm 29.91 1013 10 16.0934 0 0
6:51 am 06:51 Sunny 61 16.1 28 -2.2 29 29 Calm 29.92 1013 10 16.0934 0 0
7:51 am 07:51 Sunny 69 20.6 29 -1.7 22 22 Calm 29.93 1014 10 16.0934 0 0
8:51 am 08:51 Sunny 76 24.4 28 -2.2 17 17 Calm 29.93 1014 10 16.0934 0 0
9:51 am 09:51 Sunny 83 28.3 27 -2.8 13 13 VRB 3 6 29.92 1013 10 16.0934 0 0
10:51 am 10:51 Sunny 86 30 30 -1.1 13 13 VRB 5 7 29.89 1012 10 16.0934 0 0
11:51 am 11:51 Sunny 89 31.7 27 -2.8 11 11 WSW 6 9 29.88 1012 10 16.0934 0 0
12:51 pm 12:51 Sunny 92 33.3 26 -3.3 9 9 ENE 7 11 29.85 1011 10 16.0934 0 0
1:51 pm 13:51 Sunny 95 35 27 -2.8 9 9 W 6 9 29.82 1010 10 16.0934 0 0
2:51 pm 14:51 Sunny 97 36.1 27 -2.8 8 8 NW 8 13 29.79 1009 10 16.0934 0 0
3:51 pm 15:51 Sunny 95 35 26 -3.3 8 8 VRB 5 7 29.76 1008 10 16.0934 0 0
4:51 pm 16:51 Sunny 96 35.6 25 -3.9 8 8 NW 5 7 29.76 1008 10 16.0934 0 0
5:51 pm 17:51 Sunny 94 34.4 24 -4.4 8 8 NW 15 24 29.77 1008 10 16.0934 0 0
6:51 pm 18:51 Sunny 90 32.2 24 -4.4 9 9 NW 15 24 29.76 1008 10 16.0934 0 0
7:51 pm 19:51 Clear 84 28.9 24 -4.4 11 11 NW 10 17 29.78 1009 10 16.0934 0 0
8:51 pm 20:51 Clear 78 25.6 25 -3.9 14 14 NW 10 17 29.81 1009 10 16.0934 0 0
9:51 pm 21:51 Clear 76 24.4 25 -3.9 15 15 NNW 10 17 29.8 1009 10 16.0934 0 0
10:51 pm 22:51 Clear 73 22.8 25 -3.9 17 17 WNW 9 15 29.8 1009 10 16.0934 0 0
11:51 pm 23:51 Clear 73 22.8 26 -3.3 17 17 NW 10 17 29.8 1009 10 16.0934 0 0

Powered by AerisWeather